Weather History for Eau Claire, WI

Change the Weather History Date:

Sunday, November 27, 2011

  Actual Average Record
Temperature  
Mean Temperature 32 °F 26 °F  
Max Temperature 35 °F 35 °F 67 °F (1998)
Min Temperature 29 °F 18 °F -9 °F (1897)
Degree Days  
Heating Degree Days 33 39  
Month to date heating degree days 708 843  
Since 1 July heating degree days 1402 1627  
Cooling Degree Days 0 0  
Month to date cooling degree days 0 0  
Year to date cooling degree days 655 579  
Moisture  
Dew Point 23 °F    
Average Humidity 69    
Maximum Humidity 75    
Minimum Humidity 63    
Precipitation  
Precipitation 0.00 in 0.06 in 0.65 in (2001)
Month to date precipitation 0.55 1.68  
Year to date precipitation 30.70 29.82  
Snow  
Snow 0.00 in 0.30 in 7.60 in (1977)
Month to date snowfall 1.2 5.1  
Since 1 July snowfall 1.2 5.5  
Since 1 September snowfall 1.2 5.5  
Snow Depth 0.00 in    
Sea Level Pressure  
Sea Level Pressure 30.12 in    
Wind  
Wind Speed 9 mph (NNW)    
Max Wind Speed 20 mph    
Max Gust Speed 29 mph    
Visibility 10 miles    
Events      
T = Trace of Precipitation, MM = Missing Value Source: NWS Daily Summary

Daily Weather History Graph

Daily Weather History Graph

Search for Another Location

Airport:

Trip Planner

Search our weather history database for the weather conditions in past years. The results will help you decide how hot, cold, wet, or windy it might be!

Date:

Astronomy

Nov. 27, 2011 Rise Set
Actual Time 7:18 AM CST 4:28 PM CST
Civil Twilight 6:45 AM CST 5:00 PM CST
Nautical Twilight 6:09 AM CST 5:37 PM CST
Astronomical Twilight 5:34 AM CST 6:12 PM CST
Moon 9:44 AM CST (11/27) 7:06 PM CST (11/27)
Length of Visible Light 10h 15m
Length of Day
9h 09m
Waxing Crescent, 8% of the Moon is Illuminated
Nov 27
Waxing Crescent
Dec 2
First Quarter
Dec 10
Full
Dec 17
Last Quarter
Dec 24
New

Hourly Weather History & Observations

Time (CST) Temp. Windchill Dew Point Humidity Pressure Visibility Wind Dir Wind Speed Gust Speed Precip Events Conditions
12:56 AM 34.0 °F 24.2 °F 27.0 °F 75% 29.99 in 10.0 mi NNW 15.0 mph 19.6 mph N/A   Overcast
1:56 AM 33.8 °F 24.3 °F 26.6 °F 75% 29.98 in 10.0 mi NNW 13.8 mph 20.7 mph N/A   Overcast
2:56 AM 34.0 °F 25.5 °F 26.1 °F 73% 30.03 in 10.0 mi NNW 11.5 mph 19.6 mph N/A   Overcast
3:56 AM 33.1 °F 23.9 °F 26.1 °F 75% 30.03 in 10.0 mi NNW 12.7 mph 20.7 mph N/A   Overcast
4:56 AM 33.1 °F 23.0 °F 25.0 °F 72% 30.04 in 10.0 mi NNW 15.0 mph 27.6 mph N/A   Overcast
5:56 AM 33.1 °F 23.4 °F 25.0 °F 72% 30.06 in 10.0 mi NNW 13.8 mph 24.2 mph N/A   Overcast
6:56 AM 32.0 °F 22.5 °F 25.0 °F 75% 30.08 in 10.0 mi NNW 12.7 mph 19.6 mph N/A   Overcast
7:56 AM 32.0 °F 23.6 °F 24.1 °F 73% 30.11 in 10.0 mi NNW 10.4 mph 18.4 mph N/A   Overcast
8:56 AM 32.0 °F 22.1 °F 23.0 °F 69% 30.12 in 10.0 mi NNW 13.8 mph 23.0 mph N/A   Overcast
9:56 AM 32.0 °F 21.2 °F 23.0 °F 69% 30.14 in 10.0 mi NNW 16.1 mph 24.2 mph N/A   Overcast
10:56 AM 32.0 °F 22.1 °F 21.9 °F 66% 30.14 in 10.0 mi North 13.8 mph 23.0 mph N/A   Overcast
11:56 AM 32.0 °F 23.6 °F 23.0 °F 69% 30.14 in 10.0 mi North 10.4 mph 19.6 mph N/A   Overcast
12:56 PM 32.0 °F 22.1 °F 23.0 °F 69% 30.14 in 10.0 mi North 13.8 mph 21.9 mph N/A   Overcast
1:56 PM 32.0 °F 24.2 °F 23.0 °F 69% 30.15 in 10.0 mi NNW 9.2 mph - N/A   Overcast
2:56 PM 32.0 °F 22.5 °F 24.1 °F 73% 30.16 in 10.0 mi NNW 12.7 mph - N/A   Overcast
3:56 PM 30.9 °F 25.2 °F 23.0 °F 72% 30.17 in 10.0 mi NNW 5.8 mph - N/A   Overcast
4:56 PM 30.2 °F 23.4 °F 21.2 °F 69% 30.15 in 10.0 mi North 6.9 mph - N/A   Overcast
5:56 PM 30.0 °F 25.2 °F 21.0 °F 69% 30.20 in 10.0 mi Variable 4.6 mph - N/A   Overcast
6:56 PM 30.0 °F 23.2 °F 21.9 °F 72% 30.20 in 10.0 mi NW 6.9 mph - N/A   Overcast
7:56 PM 30.0 °F 25.2 °F 21.9 °F 72% 30.21 in 10.0 mi North 4.6 mph - N/A   Overcast
8:56 PM 28.9 °F - 21.9 °F 75% 30.19 in 10.0 mi Calm Calm - N/A   Overcast
9:56 PM 28.9 °F - 21.9 °F 75% 30.19 in 10.0 mi Calm Calm - N/A   Overcast
10:56 PM 28.4 °F - 21.2 °F 74% 30.15 in 10.0 mi Calm Calm - N/A   Overcast
11:56 PM 28.9 °F - 21.9 °F 75% 30.20 in 10.0 mi Calm Calm - N/A   Overcast